TimeEDT,TemperatureF,Dew PointF,Humidity,Sea Level PressureIn,VisibilityMPH,Wind Direction,Wind SpeedMPH,Gust SpeedMPH,PrecipitationIn,Events,Conditions,WindDirDegrees,DateUTC
12:02 AM,75.2,73.4,94,30.03,10.0,East,8.1,-,N/A,,Overcast,90,2012-06-21 04:02:00
12:17 AM,75.2,73.4,94,30.03,10.0,East,5.8,-,N/A,,Overcast,90,2012-06-21 04:17:00
12:53 AM,75.2,73.4,94,30.03,10.0,East,5.8,-,N/A,,Overcast,80,2012-06-21 04:53:00
1:53 AM,75.0,73.9,96,30.01,10.0,Calm,Calm,-,N/A,,Mostly Cloudy,0,2012-06-21 05:53:00
2:21 AM,73.4,73.4,100,30.00,10.0,NE,6.9,-,N/A,,Mostly Cloudy,50,2012-06-21 06:21:00
2:41 AM,73.4,73.4,100,30.00,10.0,Calm,Calm,-,N/A,,Mostly Cloudy,0,2012-06-21 06:41:00
2:53 AM,73.9,73.9,100,29.99,10.0,ENE,3.5,-,N/A,,Mostly Cloudy,70,2012-06-21 06:53:00
3:53 AM,73.4,73.4,100,29.98,10.0,Calm,Calm,-,N/A,,Mostly Cloudy,0,2012-06-21 07:53:00
4:53 AM,73.4,73.4,100,29.98,10.0,ENE,4.6,-,N/A,,Mostly Cloudy,60,2012-06-21 08:53:00
5:53 AM,73.0,73.0,100,29.96,10.0,ENE,4.6,-,N/A,,Scattered Clouds,70,2012-06-21 09:53:00
6:53 AM,73.4,73.4,100,29.97,10.0,ENE,5.8,-,N/A,,Mostly Cloudy,70,2012-06-21 10:53:00
7:53 AM,77.0,75.0,94,29.98,10.0,East,5.8,-,N/A,,Mostly Cloudy,80,2012-06-21 11:53:00
8:30 AM,78.8,75.2,89,29.99,10.0,East,9.2,-,N/A,,Mostly Cloudy,100,2012-06-21 12:30:00
8:53 AM,78.8,73.4,83,29.99,10.0,East,9.2,-,N/A,,Scattered Clouds,90,2012-06-21 12:53:00
9:53 AM,81.0,73.9,79,29.99,10.0,East,11.5,-,N/A,,Mostly Cloudy,100,2012-06-21 13:53:00
10:53 AM,84.2,73.4,70,29.99,10.0,ENE,12.7,-,N/A,,Mostly Cloudy,70,2012-06-21 14:53:00
11:53 AM,86.0,73.4,66,29.98,10.0,East,10.4,-,N/A,,Mostly Cloudy,100,2012-06-21 15:53:00
12:53 PM,87.8,73.4,62,29.97,10.0,ESE,9.2,-,N/A,,Mostly Cloudy,110,2012-06-21 16:53:00
1:53 PM,87.8,71.6,58,29.95,10.0,ESE,16.1,-,N/A,,Overcast,110,2012-06-21 17:53:00
2:53 PM,86.0,73.4,66,29.94,10.0,SE,17.3,24.2,N/A,Rain,Light Rain,140,2012-06-21 18:53:00
3:53 PM,82.4,73.4,74,29.92,10.0,SE,6.9,-,N/A,,Mostly Cloudy,140,2012-06-21 19:53:00
4:53 PM,87.1,71.1,59,29.90,10.0,ESE,16.1,-,N/A,,Mostly Cloudy,110,2012-06-21 20:53:00
5:53 PM,84.2,71.6,66,29.91,10.0,ESE,15.0,-,N/A,,Mostly Cloudy,110,2012-06-21 21:53:00
6:53 PM,84.0,72.0,67,29.91,10.0,ESE,15.0,-,N/A,,Mostly Cloudy,110,2012-06-21 22:53:00
7:53 PM,81.0,73.0,77,29.92,10.0,ESE,12.7,-,N/A,,Mostly Cloudy,110,2012-06-21 23:53:00
8:53 PM,79.0,73.9,84,29.92,10.0,East,9.2,-,N/A,,Mostly Cloudy,90,2012-06-22 00:53:00
9:53 PM,78.8,73.4,83,29.94,10.0,East,5.8,-,N/A,,Mostly Cloudy,100,2012-06-22 01:53:00
10:53 PM,77.0,73.4,89,29.95,10.0,ENE,5.8,-,N/A,,Mostly Cloudy,70,2012-06-22 02:53:00
11:53 PM,75.2,73.4,94,29.94,10.0,ENE,5.8,-,N/A,,Scattered Clouds,70,2012-06-22 03:53:00